Location: Gerlach
(40.6516°N, 119.3568°W)
Time: 21:43:29
(UTC-07:00)

STARLINK-5305 - Visible Passes

Search period start: 05 June 2026 00:00
Search period end: 15 June 2026 00:00
Orbit: 569 x 575 km, 70.0° (Epoch: 5 June)

Date Brightness Start Highest point End Pass type
(mag) Time Alt. Az. Time Alt. Az. Time Alt. Az.
5 Jun ? 03:52:29 10° NNW 03:56:35 47° ENE 04:00:38 10° SE visible
6 Jun ? 03:54:45 10° NNW 03:58:58 72° ENE 04:03:09 10° SSE visible
7 Jun ? 02:20:55 10° NNE 02:22:29 12° NE 02:24:03 10° ENE visible
7 Jun ? 03:57:06 10° NNW 04:01:20 76° WSW 04:05:30 10° SSE visible
8 Jun ? 02:22:21 10° NNE 02:25:03 16° NE 02:27:44 10° E visible
8 Jun ? 03:59:34 10° NW 04:03:38 49° WSW 04:07:41 10° S visible
9 Jun ? 02:24:13 10° N 02:27:35 23° NE 02:30:55 10° ESE visible
9 Jun ? 04:02:09 10° NW 04:05:56 32° WSW 04:08:48 15° SSW visible
10 Jun ? 02:26:16 10° N 02:30:04 32° ENE 02:33:30 12° ESE visible
10 Jun ? 04:04:56 10° NW 04:08:10 22° WSW 04:09:34 18° SW visible
11 Jun ? 02:28:25 10° NNW 02:32:30 46° ENE 02:34:35 25° ESE visible
11 Jun ? 04:08:02 10° WNW 04:10:23 15° WSW 04:10:40 15° WSW visible
12 Jun ? 02:30:41 10° NNW 02:34:54 70° ENE 02:35:55 49° SE visible
13 Jun ? 00:56:55 10° NNE 00:58:25 12° NE 00:59:54 10° ENE visible
13 Jun ? 02:33:03 10° NNW 02:37:16 77° WSW 02:37:25 76° SW visible
14 Jun ? 00:58:20 10° NNE 01:01:00 16° NE 01:02:56 12° E visible
14 Jun ? 02:35:30 10° NW 02:39:03 46° W 02:39:03 46° W visible
